[[{"header":{"parameterUnit":"m.s-1","parameterCategory":1,"la1":30.2992,"la2":30.254,"lo1":-89.0895,"lo2":-89.0443,"dy":0.0025,"dx":0.0025,"nx":19,"ny":19,"refTime":"2026-03-08T21:00:00:Z","depth":0,"parameterNumber":2,"parameterNumberName":"U-component_of_WINDS"},"data":[0,0,0,0.0896,0.0899,0.106,0.1061,0.1244,0.1245,0,0,0,0,0,0,0,0,0,0,0,0.0832,0.0833,0.0895,0.0899,0.106,0.1061,0.1244,0.1245,0,0,0,0,0,0,0,0,0,0,0,0.0832,0.0833,0.0833,0.0899,0.106,0.1061,0.1243,0.113,0,0,0,0,0,0,0,0,0,0,0.0977,0.0903,0.0832,0.0833,0.09,0.106,0.1061,0.1125,0.1137,0.116,0,0.1175,0,0.1213,0.1256,0.1256,0,0,0,0.0911,0.0893,0.0951,0.0834,0.0902,0.106,0.0991,0.1132,0.1146,0.1176,0.1178,0.1185,0.1216,0.1257,0.1258,0.1344,0.1343,0,0,0.0902,0.0853,0.0941,0.0959,0.0931,0.0986,0.0996,0.1141,0.114,0.1179,0.119,0.1219,0.1258,0.1259,0.1344,0.1344,0,0,0,0.0868,0.0846,0.0901,0.095,0.0981,0.099,0.1002,0.1134,0.1156,0.1192,0.1221,0.1259,0.1261,0.1344,0.1344,0.1285,0,0,0,0.0864,0.0827,0.0896,0.0868,0.0978,0.1059,0.0991,0.1146,0.1164,0.122,0.1259,0.1262,0.1344,0.1344,0.1288,0.1266,0,0,0,0.0827,0.0823,0.0841,0.0865,0.0933,0.1058,0.1089,0.1151,0.118,0.1256,0.1263,0.1345,0.1344,0.1289,0.1269,0.1272,0,0,0,0.0774,0.0789,0.0839,0.0866,0.0931,0.1021,0.1088,0.1159,0.1217,0.126,0.1344,0.1344,0.129,0.1271,0.1274,0.1265,0.1257,0,0,0.0765,0.0786,0.0806,0.0855,0.0923,0.1,0.1061,0.1162,0.1215,0.1298,0.1301,0.1287,0.127,0.1273,0.1232,0.1224,0,0,0,0.0786,0.08,0.0829,0.088,0.0957,0.102,0.1117,0.1154,0.1226,0.1247,0.1292,0.1283,0.1287,0.1284,0.1279,0.1284,0.1341,0.1341,0.1341,0.0703,0.0768,0.0805,0.0889,0.0939,0.1037,0.1084,0.1151,0.1205,0.1214,0.1238,0.1205,0.1201,0.1197,0.1202,0.1241,0.124,0.124,0.124,0.0694,0.0722,0.0791,0.0851,0.092,0.0972,0.1067,0.1103,0.1161,0.1193,0.12,0.1226,0.1187,0.1195,0.1236,0.1237,0.1237,0.1238,0.1238,0.0645,0.067,0.0714,0.0794,0.0849,0.0935,0.0987,0.1049,0.1109,0.1116,0.1147,0.1148,0.1155,0.1126,0.1126,0.1126,0.1126,0.1126,0.1126,0.0576,0.0627,0.0662,0.0742,0.0783,0.0844,0.0943,0.0985,0.1048,0.1089,0.109,0.1141,0.1171,0.1176,0.1124,0.1125,0.1125,0.1125,0.1125,0.0539,0.0557,0.061,0.065,0.0749,0.0799,0.0878,0.0958,0.1002,0.1025,0.1075,0.1088,0.1114,0.112,0.1124,0.1062,0.1062,0.1062,0.1062,0.0495,0.0515,0.0582,0.0642,0.0709,0.0785,0.0843,0.0919,0.1002,0.1033,0.1052,0.1064,0.1066,0.1091,0.1097,0.1102,0.1036,0.1036,0.1036,0.0475,0.0503,0.054,0.0619,0.0701,0.0769,0.0826,0.0892,0.099,0.1036,0.1059,0.106,0.108,0.1083,0.1127,0.1135,0.1146,0,0]},{"header":{"parameterUnit":"m.s-1","parameterCategory":1,"la1":30.2992,"la2":30.254,"lo1":-89.0895,"lo2":-89.0443,"dy":0.0025,"dx":0.0025,"nx":19,"ny":19,"refTime":"2026-03-08T21:00:00:Z","depth":0,"parameterNumber":3,"parameterNumberName":"V-component_of_WINDS"},"data":[0,0,0,1.1204,1.1203,1.1193,1.1193,1.1185,1.1185,0,0,0,0,0,0,0,0,0,0,0,1.1211,1.1211,1.1204,1.1203,1.1193,1.1193,1.1185,1.1185,0,0,0,0,0,0,0,0,0,0,0,1.1211,1.1211,1.1211,1.1203,1.1193,1.1193,1.1185,1.1191,0,0,0,0,0,0,0,0,0,0,1.12,1.121,1.1211,1.1211,1.1203,1.1193,1.1193,1.1191,1.119,1.1192,0,1.1195,0,1.119,1.1185,1.1185,0,0,0,1.12,1.1211,1.1205,1.1211,1.1203,1.1193,1.1197,1.119,1.119,1.1192,1.1195,1.1195,1.119,1.1185,1.1185,1.1208,1.1208,0,0,1.1201,1.1211,1.1205,1.1204,1.1207,1.1197,1.1196,1.119,1.1194,1.1195,1.1194,1.119,1.1185,1.1185,1.1208,1.1208,0,0,0,1.1205,1.1211,1.1205,1.1205,1.1203,1.1197,1.1196,1.1195,1.1192,1.1194,1.119,1.1185,1.1185,1.1207,1.1208,1.123,0,0,0,1.1205,1.1213,1.1205,1.1211,1.1203,1.1198,1.1201,1.1192,1.1191,1.119,1.1185,1.1185,1.1207,1.1207,1.1229,1.124,0,0,0,1.121,1.1214,1.1214,1.1212,1.1207,1.1198,1.1195,1.1192,1.1189,1.1185,1.1185,1.1207,1.1207,1.1228,1.1238,1.125,0,0,0,1.1218,1.1233,1.1214,1.1229,1.1208,1.1213,1.1195,1.1198,1.1197,1.1185,1.1207,1.1208,1.1228,1.1237,1.1248,1.1262,1.1268,0,0,1.1242,1.1236,1.1244,1.1227,1.1238,1.1213,1.1227,1.1217,1.1207,1.1208,1.1209,1.123,1.1238,1.1249,1.1299,1.1304,0,0,0,1.1255,1.1262,1.1262,1.1263,1.1256,1.1251,1.1237,1.1234,1.1234,1.121,1.1236,1.1241,1.1247,1.1253,1.1258,1.1263,1.1211,1.121,1.121,1.1304,1.1292,1.1305,1.1291,1.1292,1.1279,1.1278,1.1271,1.1257,1.1264,1.1264,1.1296,1.1303,1.1306,1.1312,1.1269,1.1269,1.1269,1.127,1.1339,1.1346,1.1329,1.1336,1.1323,1.1328,1.1316,1.1307,1.131,1.1294,1.1299,1.1283,1.1312,1.1317,1.1271,1.1271,1.1271,1.127,1.127,1.137,1.1372,1.1368,1.1368,1.1369,1.1354,1.1359,1.1346,1.1334,1.134,1.1339,1.1339,1.1338,1.134,1.134,1.134,1.1341,1.1341,1.1341,1.1405,1.1399,1.1405,1.14,1.1399,1.1396,1.1383,1.1382,1.1378,1.1368,1.1368,1.1355,1.1317,1.1308,1.1342,1.1342,1.1342,1.1342,1.1342,1.1447,1.1435,1.1444,1.1443,1.1437,1.144,1.1424,1.1423,1.142,1.1423,1.1408,1.1382,1.1375,1.1371,1.1364,1.141,1.141,1.141,1.141,1.1474,1.1469,1.1476,1.1476,1.1474,1.1461,1.1472,1.1462,1.1451,1.1449,1.144,1.1429,1.1426,1.142,1.1416,1.1409,1.1466,1.1466,1.1466,1.1499,1.1494,1.1506,1.1495,1.1489,1.1485,1.1495,1.1496,1.148,1.1468,1.1447,1.1444,1.1427,1.1421,1.1409,1.1402,1.139,0,0]}]]